Time,TemperatureF,DewpointF,PressureIn,WindDirection,WindDirectionDegrees,WindSpeedMPH,WindSpeedGustMPH,Humidity,HourlyPrecipIn,Conditions,Clouds,dailyrainin,SoftwareType,DateUTC
2013-03-31 00:02:00,41.0,39.0,-100.00,SW,221,4.0,7.0,93,0.00,,,0.03,,2013-03-31 05:02:00,
2013-03-31 00:12:00,41.0,39.0,-100.00,SW,221,4.0,7.0,93,0.00,,,0.03,,2013-03-31 05:12:00,
2013-03-31 00:22:00,41.0,39.0,-100.00,SW,221,4.0,7.0,93,0.00,,,0.03,,2013-03-31 05:22:00,
2013-03-31 00:53:00,40.0,39.0,-100.00,WNW,289,6.0,9.0,96,0.00,,,0.03,,2013-03-31 05:53:00,
2013-03-31 01:02:00,40.0,39.0,-100.00,WNW,289,6.0,9.0,96,0.00,,,0.03,,2013-03-31 06:02:00,
2013-03-31 01:12:00,40.0,39.0,-100.00,WNW,289,6.0,9.0,96,0.00,,,0.03,,2013-03-31 06:12:00,
2013-03-31 01:22:00,40.0,39.0,-100.00,WNW,289,6.0,9.0,96,0.00,,,0.03,,2013-03-31 06:22:00,
2013-03-31 01:52:00,38.0,38.0,-100.00,NW,314,5.0,11.0,99,0.00,,,0.03,,2013-03-31 06:52:00,
2013-03-31 02:02:00,38.0,38.0,-100.00,NW,314,5.0,11.0,99,0.00,,,0.03,,2013-03-31 07:02:00,
2013-03-31 02:12:00,38.0,38.0,-100.00,NW,314,5.0,11.0,99,0.00,,,0.03,,2013-03-31 07:12:00,
2013-03-31 02:22:00,38.0,38.0,-100.00,NW,314,5.0,11.0,99,0.00,,,0.03,,2013-03-31 07:22:00,
2013-03-31 02:53:00,37.0,36.0,-100.00,WNW,300,6.0,10.0,96,0.00,,,0.03,,2013-03-31 07:53:00,
2013-03-31 03:02:00,37.0,36.0,-100.00,WNW,300,6.0,10.0,96,0.00,,,0.03,,2013-03-31 08:02:00,
2013-03-31 03:12:00,37.0,36.0,-100.00,WNW,300,6.0,10.0,96,0.00,,,0.03,,2013-03-31 08:12:00,
2013-03-31 03:22:00,37.0,36.0,-100.00,WNW,300,6.0,10.0,96,0.00,,,0.03,,2013-03-31 08:22:00,
2013-03-31 03:52:00,36.0,35.0,-100.00,WNW,300,4.0,9.0,96,0.00,,,0.03,,2013-03-31 08:52:00,
2013-03-31 04:02:00,36.0,35.0,-100.00,WNW,300,4.0,9.0,96,0.00,,,0.03,,2013-03-31 09:02:00,
2013-03-31 04:12:00,36.0,35.0,-100.00,WNW,300,4.0,9.0,96,0.00,,,0.03,,2013-03-31 09:12:00,
2013-03-31 04:22:00,36.0,35.0,-100.00,WNW,300,4.0,9.0,96,0.00,,,0.03,,2013-03-31 09:22:00,
2013-03-31 04:53:00,36.0,35.0,-100.00,WNW,290,5.0,10.0,96,0.00,,,0.03,,2013-03-31 09:53:00,
2013-03-31 05:03:00,36.0,35.0,-100.00,WNW,290,5.0,10.0,96,0.00,,,0.03,,2013-03-31 10:03:00,
2013-03-31 05:13:00,36.0,35.0,-100.00,WNW,290,5.0,10.0,96,0.00,,,0.03,,2013-03-31 10:13:00,
2013-03-31 05:23:00,36.0,35.0,-100.00,WNW,290,5.0,10.0,96,0.00,,,0.03,,2013-03-31 10:23:00,
2013-03-31 05:53:00,37.0,36.0,-100.00,West,275,5.0,9.0,98,0.00,,,0.03,,2013-03-31 10:53:00,
2013-03-31 06:02:00,37.0,36.0,-100.00,West,275,5.0,9.0,98,0.00,,,0.03,,2013-03-31 11:02:00,
2013-03-31 06:12:00,37.0,36.0,-100.00,West,275,5.0,9.0,98,0.00,,,0.03,,2013-03-31 11:12:00,
2013-03-31 06:23:00,37.0,36.0,-100.00,West,275,5.0,9.0,98,0.00,,,0.03,,2013-03-31 11:23:00,
2013-03-31 06:53:00,37.0,36.0,-100.00,WNW,285,6.0,9.0,97,0.00,,,0.03,,2013-03-31 11:53:00,
2013-03-31 07:03:00,37.0,36.0,-100.00,WNW,285,6.0,9.0,97,0.00,,,0.03,,2013-03-31 12:03:00,
2013-03-31 07:12:00,37.0,36.0,-100.00,WNW,285,6.0,9.0,97,0.00,,,0.03,,2013-03-31 12:12:00,
2013-03-31 07:22:00,37.0,36.0,-100.00,WNW,285,6.0,9.0,97,0.00,,,0.03,,2013-03-31 12:22:00,
2013-03-31 07:53:00,37.0,36.0,-100.00,West,276,7.0,13.0,96,0.00,,,0.03,,2013-03-31 12:53:00,
2013-03-31 08:02:00,37.0,36.0,-100.00,West,276,7.0,13.0,96,0.00,,,0.03,,2013-03-31 13:02:00,
2013-03-31 08:12:00,37.0,36.0,-100.00,West,276,7.0,13.0,96,0.00,,,0.03,,2013-03-31 13:12:00,
2013-03-31 08:22:00,37.0,36.0,-100.00,West,276,7.0,13.0,96,0.00,,,0.03,,2013-03-31 13:22:00,
2013-03-31 08:53:00,38.0,37.0,-100.00,West,261,8.0,13.0,95,0.00,,,0.03,,2013-03-31 13:53:00,
2013-03-31 09:02:00,38.0,37.0,-100.00,West,261,8.0,13.0,95,0.00,,,0.03,,2013-03-31 14:02:00,
2013-03-31 09:12:00,38.0,37.0,-100.00,West,261,8.0,13.0,95,0.00,,,0.03,,2013-03-31 14:12:00,
2013-03-31 09:22:00,38.0,37.0,-100.00,West,261,8.0,13.0,95,0.00,,,0.03,,2013-03-31 14:22:00,
2013-03-31 09:52:00,38.0,36.0,-100.00,West,272,9.0,16.0,93,0.00,,,0.03,,2013-03-31 14:52:00,
2013-03-31 10:03:00,38.0,36.0,-100.00,West,272,9.0,16.0,93,0.00,,,0.03,,2013-03-31 15:03:00,
2013-03-31 10:13:00,38.0,36.0,-100.00,West,272,9.0,16.0,93,0.00,,,0.03,,2013-03-31 15:13:00,
2013-03-31 10:22:00,38.0,36.0,-100.00,West,272,9.0,16.0,93,0.00,,,0.03,,2013-03-31 15:22:00,
2013-03-31 10:54:00,38.0,36.0,-100.00,WNW,288,9.0,14.0,91,0.00,,,0.03,,2013-03-31 15:54:00,
2013-03-31 11:03:00,38.0,36.0,-100.00,WNW,288,9.0,14.0,91,0.00,,,0.03,,2013-03-31 16:03:00,
2013-03-31 11:13:00,38.0,36.0,-100.00,WNW,288,9.0,14.0,91,0.00,,,0.03,,2013-03-31 16:13:00,
2013-03-31 11:23:00,38.0,36.0,-100.00,WNW,288,9.0,14.0,91,0.00,,,0.03,,2013-03-31 16:23:00,
2013-03-31 11:53:00,42.0,37.0,-100.00,West,273,10.0,14.0,81,0.00,,,0.03,,2013-03-31 16:53:00,
2013-03-31 12:03:00,42.0,37.0,-100.00,West,273,10.0,14.0,81,0.00,,,0.03,,2013-03-31 17:03:00,
2013-03-31 12:12:00,42.0,37.0,-100.00,West,273,10.0,14.0,81,0.00,,,0.03,,2013-03-31 17:12:00,
2013-03-31 12:22:00,42.0,37.0,-100.00,West,273,10.0,14.0,81,0.00,,,0.03,,2013-03-31 17:22:00,
2013-03-31 12:52:00,44.0,34.0,-100.00,WNW,286,13.0,19.0,68,0.00,,,0.03,,2013-03-31 17:52:00,
2013-03-31 13:03:00,44.0,34.0,-100.00,WNW,286,13.0,19.0,68,0.00,,,0.03,,2013-03-31 18:03:00,
2013-03-31 13:13:00,44.0,34.0,-100.00,WNW,286,13.0,19.0,68,0.00,,,0.03,,2013-03-31 18:13:00,
2013-03-31 13:22:00,44.0,34.0,-100.00,WNW,286,13.0,19.0,68,0.00,,,0.03,,2013-03-31 18:22:00,
2013-03-31 13:53:00,46.0,33.0,-100.00,WNW,290,14.0,21.0,60,0.00,,,0.03,,2013-03-31 18:53:00,
2013-03-31 14:03:00,46.0,33.0,-100.00,WNW,290,14.0,21.0,60,0.00,,,0.03,,2013-03-31 19:03:00,
2013-03-31 14:12:00,46.0,33.0,-100.00,WNW,290,14.0,21.0,60,0.00,,,0.03,,2013-03-31 19:12:00,
2013-03-31 14:22:00,46.0,33.0,-100.00,WNW,290,14.0,21.0,60,0.00,,,0.03,,2013-03-31 19:22:00,
2013-03-31 14:54:00,44.0,31.0,-100.00,WNW,292,17.0,25.0,61,0.00,,,0.03,,2013-03-31 19:54:00,
2013-03-31 15:03:00,44.0,31.0,-100.00,WNW,292,17.0,25.0,61,0.00,,,0.03,,2013-03-31 20:03:00,
2013-03-31 15:12:00,44.0,31.0,-100.00,WNW,292,17.0,25.0,61,0.00,,,0.03,,2013-03-31 20:12:00,
2013-03-31 15:22:00,44.0,31.0,-100.00,WNW,292,17.0,25.0,61,0.00,,,0.03,,2013-03-31 20:22:00,
2013-03-31 15:53:00,39.0,30.0,-100.00,NW,307,18.0,27.0,71,0.00,,,0.03,,2013-03-31 20:53:00,
2013-03-31 16:02:00,39.0,30.0,-100.00,NW,307,18.0,27.0,71,0.00,,,0.03,,2013-03-31 21:02:00,
2013-03-31 16:12:00,39.0,30.0,-100.00,NW,307,18.0,27.0,71,0.00,,,0.03,,2013-03-31 21:12:00,
2013-03-31 16:22:00,39.0,30.0,-100.00,NW,307,18.0,27.0,71,0.00,,,0.03,,2013-03-31 21:22:00,
2013-03-31 16:54:00,39.0,32.0,-100.00,WNW,303,16.0,25.0,76,0.00,,,0.03,,2013-03-31 21:54:00,
2013-03-31 17:03:00,39.0,32.0,-100.00,WNW,303,16.0,25.0,76,0.00,,,0.03,,2013-03-31 22:03:00,
2013-03-31 17:13:00,39.0,32.0,-100.00,WNW,303,16.0,25.0,76,0.00,,,0.03,,2013-03-31 22:13:00,
2013-03-31 17:23:00,39.0,32.0,-100.00,WNW,303,16.0,25.0,76,0.00,,,0.03,,2013-03-31 22:23:00,
2013-03-31 17:53:00,39.0,30.0,-100.00,WNW,298,15.0,24.0,70,0.00,,,0.03,,2013-03-31 22:53:00,
2013-03-31 18:03:00,39.0,30.0,-100.00,WNW,298,15.0,24.0,70,0.00,,,0.03,,2013-03-31 23:03:00,
2013-03-31 18:13:00,39.0,30.0,-100.00,WNW,298,15.0,24.0,70,0.00,,,0.03,,2013-03-31 23:13:00,
2013-03-31 18:22:00,39.0,30.0,-100.00,WNW,298,15.0,24.0,70,0.00,,,0.03,,2013-03-31 23:22:00,
2013-03-31 18:53:00,37.0,31.0,-100.00,WNW,298,14.0,24.0,79,0.00,,,-99.99,,2013-03-31 23:53:00,
2013-03-31 19:02:00,37.0,31.0,-100.00,WNW,298,14.0,24.0,79,0.00,,,-99.99,,2013-04-01 00:02:00,
2013-03-31 19:12:00,37.0,31.0,-100.00,WNW,298,14.0,24.0,79,0.00,,,-99.99,,2013-04-01 00:12:00,
2013-03-31 19:22:00,37.0,31.0,-100.00,WNW,298,14.0,24.0,79,0.00,,,-99.99,,2013-04-01 00:22:00,
2013-03-31 19:53:00,35.0,30.0,-100.00,WNW,287,13.0,19.0,82,0.00,,,0.03,,2013-04-01 00:53:00,
2013-03-31 20:03:00,35.0,30.0,-100.00,WNW,287,13.0,19.0,82,0.00,,,0.03,,2013-04-01 01:03:00,
2013-03-31 20:12:00,35.0,30.0,-100.00,WNW,287,13.0,19.0,82,0.00,,,0.03,,2013-04-01 01:12:00,
2013-03-31 20:22:00,35.0,30.0,-100.00,WNW,287,13.0,19.0,82,0.00,,,0.03,,2013-04-01 01:22:00,
2013-03-31 20:53:00,34.0,27.0,-100.00,NW,308,11.0,16.0,76,0.00,,,0.01,,2013-04-01 01:53:00,
2013-03-31 21:03:00,34.0,27.0,-100.00,NW,308,11.0,16.0,76,0.00,,,0.01,,2013-04-01 02:03:00,
2013-03-31 21:12:00,34.0,27.0,-100.00,NW,308,11.0,16.0,76,0.00,,,0.01,,2013-04-01 02:12:00,
2013-03-31 21:22:00,34.0,27.0,-100.00,NW,308,11.0,16.0,76,0.00,,,0.01,,2013-04-01 02:22:00,
2013-03-31 21:53:00,34.0,18.0,-100.00,NNW,327,12.0,20.0,51,0.00,,,0.00,,2013-04-01 02:53:00,
2013-03-31 22:03:00,34.0,18.0,-100.00,NNW,327,12.0,20.0,51,0.00,,,0.00,,2013-04-01 03:03:00,
2013-03-31 22:12:00,34.0,18.0,-100.00,NNW,327,12.0,20.0,51,0.00,,,0.00,,2013-04-01 03:12:00,
2013-03-31 22:22:00,34.0,18.0,-100.00,NNW,327,12.0,20.0,51,0.00,,,0.00,,2013-04-01 03:22:00,
2013-03-31 22:53:00,33.0,18.0,-100.00,NNW,333,12.0,22.0,54,0.00,,,0.00,,2013-04-01 03:53:00,
2013-03-31 23:03:00,33.0,18.0,-100.00,NNW,333,12.0,22.0,54,0.00,,,0.00,,2013-04-01 04:03:00,
2013-03-31 23:14:00,33.0,18.0,-100.00,NNW,333,12.0,22.0,54,0.00,,,0.00,,2013-04-01 04:14:00,
2013-03-31 23:23:00,33.0,18.0,-100.00,NNW,333,12.0,22.0,54,0.00,,,0.00,,2013-04-01 04:23:00,
2013-03-31 23:53:00,30.0,21.0,-100.00,North,357,6.0,16.0,69,0.00,,,0.00,,2013-04-01 04:53:00,